STARLINK-35970

Satellite information

Favourite Embed

Satellite Type and Status

PAYLOADIN ORBIT

Key statistics

Satellite STARLINK-35970 at a glance.

Uptime

24

Days in orbit

Revolutions

≈ 15.5

Per day

Orbit

LEO

Low Earth Orbit

Inclination

53.2

Latest

Satellite identification and parameters

Extended collection of information and parameters for STARLINK-35970.

Object identification

Identified? True

Debris? False

Object name: STARLINK-35970

International designator: 2025-271B

Object number (NORAD): 66618

Object ID (CCSDS): 66618

Country: UNITED STATES OF AMERICA (US)

Current information (Y/N): Y

Orbital parameters

Period: 92.946 minutes

Inclination: 53.1594 deg

SMA: 6796.937 km

Apoapsis: 419.251 km

Periapsis: 418.353 km

RAAN: 167.1927 deg

Eccentricy: 0.00006608

Argument of periapsis: 70.8386 deg

Mean anomaly: 289.2694 deg

Mean motion: 15.49290611 rev/day

Mean motion (dot): 0.0005465 rev/day2

B* drag term: 0.00098442671 1/REarth

Two-line elements (TLE)

Creation date: Dec. 17, 2025, 2:25 a.m.

Reference frame: TEME

Reference center: EARTH

Epoch: Dec. 16, 2025, 9:46 p.m. UTC

TLE line 0: 0 STARLINK-35970

TLE line 1: 1 66618U 25271B 25350.90738874 .00054650 00000-0 98443-3 0 9996

TLE line 2: 2 66618 53.1594 167.1927 0000661 70.8386 289.2694 15.49290611 4859

Live tracking on map

Real-time ground track for satellite STARLINK-35970.

In-orbit conjunctions

There are no conjunctions computed for STARLINK-35970, at the moment. Check back to stay up to date, as we update our databases every day.

Go to all conjunctions

Associated space launch

A batch of 28 satellites for the Starlink mega-constellation - SpaceX's project for space-based Internet communication system.

STARLINK-35970 was lifted into orbit during the mission ‘Falcon 9 Block 5 | Starlink Group 11-30’, on board a Falcon 9 space rocket.

The launch took place on Nov. 23, 2025, 8:48 a.m. from Space Launch Complex 4E.

For more information about the launch, click the button.

Launch to space Falcon 9 Block 5 | Starlink Group 11-30
Falcon 9 Block 5 | Starlink Group 11-30

Agency: SpaceX

Status: Launch Successful

Launch date: Nov. 23, 2025, 8:48 a.m. UTC

Rocket: Falcon 9

Launch pad: Space Launch Complex 4E

Location: Vandenberg SFB, CA, USA

...

Latest news about this satellite

News about space launch
Live coverage: SpaceX to launch 28 Starlink satellites from Vandenberg on brand new Falcon 9 rocket

Liftoff from Space Launch Complex 4E at Vandenberg Space Force Base, California, is scheduled for 12:34 a.m. PST (3:34 a.m. EST / 0834 UTC).

News about space launch
Launch Roundup: Innospace to debut new rocket, SpaceX to launch five Falcon 9 missions

Another busy week of launches has arrived, with SpaceX planning to launch five Falcon 9… The post Launch Roundup: Innospace to debut new rocket, SpaceX to launch five Falcon 9 missions appeared first on NASASpaceFlight.com.


Newsletter sign-up

Weekly statistics, charts and insights to help you stay on top of the space industry.